Location: Alma
(38.7220°N, 88.9090°W)
Time: 07:44:55
(UTC-06:00)

Vanguard 2 - Visible Passes

Search period start: 19 November 2019 00:00
Search period end: 29 November 2019 00:00
Orbit: 554 x 2937 km, 32.9° (Epoch: 18 November)

Date Brightness Start Highest point End Pass type
(mag) Time Alt. Az. Time Alt. Az. Time Alt. Az.
20 Nov 11.7 04:30:15 10° S 04:37:39 16° SSE 04:43:46 10° ESE visible
21 Nov 11.5 04:45:23 10° SSW 04:55:39 22° SSE 05:03:31 10° ESE visible
22 Nov 11.2 05:01:31 10° SSW 05:13:39 29° SSE 05:22:24 10° E visible
23 Nov 11.8 03:12:58 10° S 03:20:58 15° SE 03:27:56 10° ESE visible
23 Nov 10.9 05:18:14 10° SW 05:31:38 36° SSE 05:40:52 10° E visible
24 Nov 11.5 03:27:41 10° S 03:38:53 22° SSE 03:48:04 10° ESE visible
24 Nov 10.6 05:35:23 10° SW 05:49:38 43° SSE 05:59:05 10° E visible
25 Nov 11.3 03:43:34 10° SSW 03:56:48 28° SSE 04:07:10 10° E visible
25 Nov 10.4 05:52:50 10° SW 06:07:37 50° SSE 06:17:11 10° E visible
26 Nov 11.8 01:56:45 10° SSE 02:03:57 14° SE 02:10:39 10° ESE visible
26 Nov 11.0 04:00:04 10° SSW 04:14:44 36° SSE 04:25:48 10° E visible
26 Nov 10.2 06:10:33 10° WSW 06:25:38 57° SSE 06:35:11 10° E visible
27 Nov 11.6 02:12:49 13° S 02:21:44 20° SE 02:31:34 10° ESE visible
27 Nov 10.8 04:17:02 10° SW 04:32:40 43° SSE 04:44:08 10° E visible
28 Nov 11.3 02:31:21 19° S 02:39:30 27° SE 02:51:04 10° E visible
28 Nov 10.6 04:34:19 10° SW 04:50:38 50° SSE 05:02:18 10° E visible
